TimeAKDT,TemperatureF,Dew PointF,Humidity,Sea Level PressureIn,VisibilityMPH,Wind Direction,Wind SpeedMPH,Gust SpeedMPH,PrecipitationIn,Events,Conditions,WindDirDegrees,DateUTC
12:53 AM,55.0,43.0,64,29.64,10.0,South,5.8,-,N/A,,Overcast,170,2013-08-17 08:53:00
1:53 AM,54.0,43.0,66,29.65,10.0,SSE,8.1,-,N/A,,Mostly Cloudy,150,2013-08-17 09:53:00
2:53 AM,53.1,44.1,71,29.65,10.0,South,9.2,-,N/A,,Overcast,170,2013-08-17 10:53:00
3:53 AM,51.1,46.9,86,29.65,10.0,South,8.1,-,0.00,Rain,Light Rain,170,2013-08-17 11:53:00
4:53 AM,50.0,48.0,93,29.64,10.0,Calm,Calm,-,0.02,,Overcast,0,2013-08-17 12:53:00
5:53 AM,50.0,48.0,93,29.64,10.0,South,3.5,-,0.00,Rain,Light Rain,190,2013-08-17 13:53:00
6:53 AM,50.0,48.0,93,29.65,10.0,North,3.5,-,0.00,Rain,Light Rain,360,2013-08-17 14:53:00
7:53 AM,51.1,48.9,92,29.65,10.0,Calm,Calm,-,0.01,,Overcast,0,2013-08-17 15:53:00
8:53 AM,54.0,50.0,86,29.65,10.0,North,3.5,-,N/A,,Overcast,10,2013-08-17 16:53:00
9:53 AM,55.9,50.0,80,29.63,10.0,NNE,4.6,-,N/A,,Overcast,20,2013-08-17 17:53:00
10:53 AM,57.9,50.0,75,29.62,10.0,Calm,Calm,-,N/A,,Mostly Cloudy,0,2013-08-17 18:53:00
11:53 AM,59.0,50.0,72,29.62,10.0,Calm,Calm,-,N/A,,Mostly Cloudy,0,2013-08-17 19:53:00
12:53 PM,59.0,51.1,75,29.62,10.0,Calm,Calm,-,0.00,Rain,Light Rain,0,2013-08-17 20:53:00
1:53 PM,57.0,54.0,89,29.61,10.0,Calm,Calm,-,0.01,Rain,Light Rain,0,2013-08-17 21:53:00
2:53 PM,55.9,52.0,87,29.60,10.0,SSW,5.8,-,0.01,Rain,Light Rain,200,2013-08-17 22:53:00
3:53 PM,55.0,52.0,89,29.60,10.0,South,6.9,-,0.02,Rain,Light Rain,190,2013-08-17 23:53:00
4:53 PM,53.1,52.0,96,29.60,7.0,South,8.1,-,0.02,Rain,Light Rain,180,2013-08-18 00:53:00
5:01 PM,53.1,52.0,96,29.58,7.0,South,5.8,-,0.01,Rain,Light Rain,170,2013-08-18 01:01:00
5:25 PM,53.1,52.0,96,29.58,6.0,South,6.9,-,0.05,Rain,Light Rain,190,2013-08-18 01:25:00
5:53 PM,53.1,52.0,96,29.59,6.0,South,8.1,-,0.08,Rain,Light Rain,170,2013-08-18 01:53:00
6:53 PM,53.1,52.0,96,29.57,10.0,South,5.8,-,0.04,Rain,Light Rain,180,2013-08-18 02:53:00
7:11 PM,53.1,52.0,96,29.55,10.0,South,8.1,-,0.00,Rain,Light Rain,170,2013-08-18 03:11:00
7:21 PM,53.1,52.0,96,29.55,10.0,South,5.8,-,0.00,Rain,Light Rain,170,2013-08-18 03:21:00
7:53 PM,53.1,52.0,96,29.56,10.0,South,5.8,-,0.00,,Overcast,170,2013-08-18 03:53:00
8:08 PM,53.1,52.0,96,29.54,10.0,South,5.8,-,0.00,Rain,Light Rain,180,2013-08-18 04:08:00
8:18 PM,53.1,52.0,96,29.54,10.0,South,5.8,-,0.00,Rain,Light Rain,180,2013-08-18 04:18:00
8:28 PM,53.1,52.0,96,29.54,10.0,South,5.8,-,0.00,,Overcast,190,2013-08-18 04:28:00
8:53 PM,53.1,52.0,96,29.55,10.0,South,3.5,-,0.00,,Overcast,190,2013-08-18 04:53:00
9:53 PM,52.0,51.1,97,29.54,10.0,South,3.5,-,0.01,,Overcast,190,2013-08-18 05:53:00
10:15 PM,52.0,51.1,97,29.52,10.0,SSW,3.5,-,N/A,,Overcast,200,2013-08-18 06:15:00
10:26 PM,52.0,51.1,97,29.52,10.0,Calm,Calm,-,N/A,,Overcast,0,2013-08-18 06:26:00
10:37 PM,52.0,51.1,97,29.52,10.0,Calm,Calm,-,N/A,,Overcast,0,2013-08-18 06:37:00
10:53 PM,52.0,51.1,97,29.52,10.0,Calm,Calm,-,N/A,,Overcast,0,2013-08-18 06:53:00
11:53 PM,51.1,51.1,100,29.51,10.0,Calm,Calm,-,0.00,,Overcast,0,2013-08-18 07:53:00